Theta_e
321 323 323 321 319 317 319 320 317 316 316 314 313 310 307 307 308 306 305 306 305 305 306 305 307 309 312 314 311 307 305 306 306 306 305 305 305 307 310 313 314 314
318 323 322 321 320 318 319 316 314 317 317 314 312 308 305 305 305 305 305 305 305 305 305 304 305 306 307 307 306 305 305 305 305 305 305 305 304 305 309 313 316 313
319 324 323 321 320 318 317 316 316 318 317 314 311 305 305 305 304 305 305 304 305 305 305 305 304 305 305 304 304 304 304 304 304 304 304 304 304 305 309 312 314 311
321 325 324 322 320 317 315 315 318 318 316 314 310 305 305 305 305 306 306 306 306 305 306 306 305 305 305 305 305 305 306 305 305 305 305 306 306 307 309 310 310 309
322 324 325 324 319 314 313 312 314 316 316 313 308 305 306 305 306 307 307 307 307 307 308 307 307 307 307 307 307 307 307 308 307 308 307 308 309 308 309 309 309 309
321 322 324 324 318 312 310 309 310 312 314 313 307 305 306 306 306 307 308 309 309 308 309 308 308 309 308 308 309 309 309 308 309 310 309 309 309 310 310 311 310 309
318 319 321 320 315 310 308 307 307 309 311 310 307 306 306 306 308 308 308 309 309 309 309 308 309 309 308 310 311 312 310 308 310 315 315 311 309 311 310 310 312 312
318 320 322 320 313 308 307 307 307 307 308 308 307 307 306 307 308 308 308 309 309 309 309 309 309 309 309 313 314 312 311 311 313 318 319 315 314 315 314 311 312 313
321 323 324 324 317 309 307 307 307 307 307 307 307 307 307 310 312 311 312 314 312 312 313 313 315 314 315 319 318 315 316 317 317 319 319 317 317 319 319 317 315 314
321 322 323 325 323 317 310 307 307 307 307 306 307 307 307 312 316 314 312 315 317 318 319 320 321 319 319 321 321 319 320 319 318 318 318 317 318 320 321 321 319 318
318 319 321 324 326 323 317 311 308 306 307 306 308 310 310 315 320 316 312 314 318 321 322 321 322 321 320 321 321 321 321 320 319 320 319 319 320 321 321 321 320 320
321 321 322 323 323 321 320 318 314 310 310 309 310 314 315 318 321 320 317 318 320 321 321 321 322 322 321 321 320 319 320 320 321 322 321 321 321 321 320 321 321 320
324 323 321 320 319 320 321 322 320 318 318 316 316 318 317 318 319 320 320 321 320 320 320 321 321 321 321 322 320 318 319 321 321 321 320 320 319 318 318 319 320 319
323 321 320 320 320 321 322 323 322 321 321 319 319 320 320 319 320 320 320 320 320 320 320 321 320 318 319 320 319 318 318 320 320 319 318 317 317 317 317 318 318 317
324 323 322 321 320 320 322 324 323 322 321 319 318 320 320 320 320 320 320 321 321 321 320 320 319 318 318 320 320 319 319 319 318 318 317 316 317 317 317 318 317 315
325 325 324 322 322 321 322 322 322 322 322 319 319 319 319 319 320 320 320 321 321 320 319 318 318 318 319 320 320 319 319 320 319 317 316 315 316 317 316 317 317 315
325 325 324 323 324 324 322 321 320 321 322 321 320 320 319 319 319 320 320 320 319 318 318 317 317 317 317 317 318 318 318 319 318 317 316 315 316 316 315 316 318 317
324 324 324 323 323 323 322 322 321 321 321 321 321 320 319 319 319 319 319 318 318 318 318 317 316 316 316 316 318 318 317 317 317 317 317 316 316 316 316 316 317 317
323 324 323 323 323 322 321 322 321 321 321 321 320 320 319 319 319 320 319 319 319 318 317 316 316 317 317 317 317 317 315 316 318 317 316 317 316 316 316 316 316 316
321 322 322 321 322 320 320 320 320 321 321 320 320 320 319 319 319 319 319 318 318 317 316 316 316 317 317 316 315 314 313 313 315 315 316 316 316 316 316 315 316 316
320 320 320 320 320 319 319 319 319 319 319 319 319 318 318 318 318 317 317 317 316 316 316 316 316 316 315 314 313 311 309 306 307 312 314 314 312 313 313 313 313 314
317 318 318 318 319 318 318 318 318 318 318 318 318 317 317 317 316 316 316 316 317 317 315 315 315 314 313 312 310 306 304 302 305 312 314 313 312 310 308 308 308 310
314 315 315 316 316 317 317 316 315 315 316 315 316 316 315 316 316 315 316 317 316 315 313 312 312 312 311 308 304 302 302 303 308 313 314 314 312 309 307 306 305 306
313 313 314 314 314 315 315 315 314 315 314 314 314 314 314 315 314 313 315 316 315 313 311 309 308 307 305 302 301 302 302 304 310 313 313 313 312 310 308 306 302 302
312 313 313 313 313 313 314 313 313 314 314 313 313 313 314 314 313 313 314 314 314 314 312 308 304 302 302 302 302 302 302 304 309 312 311 311 312 311 310 308 304 303
311 311 312 312 312 312 313 312 312 312 312 312 312 312 312 313 312 312 312 312 312 313 313 311 306 303 303 303 302 303 302 302 307 311 311 310 311 310 310 310 308 307
Wind_Speed
20 17 16 16 15 15 14 14 14 13 12 11 9 8 8 8 6 5 5 5 5 6 6 7 8 8 10 9 7 8 10 11 11 12 12 12 12 12 14 16 14 11
22 18 16 16 16 16 15 14 14 14 12 11 10 9 8 7 6 5 6 6 6 6 7 7 8 7 7 8 8 9 10 11 11 11 12 12 12 13 15 16 14 10
23 19 17 16 17 17 16 15 15 14 14 12 11 10 9 8 8 8 8 8 8 8 9 8 9 9 9 9 10 10 11 12 12 11 12 13 12 13 15 15 13 12
25 21 19 18 19 19 19 19 18 16 14 14 12 11 11 11 10 10 9 9 9 9 9 9 9 9 9 9 10 10 11 11 12 12 12 13 13 12 13 14 14 14
26 25 23 21 21 21 19 19 19 18 16 15 14 14 14 13 13 11 10 10 10 10 9 9 9 8 8 9 9 9 9 10 11 10 10 11 11 11 11 11 11 12
26 26 25 23 22 20 18 18 19 18 17 16 16 16 16 15 14 13 11 10 9 9 9 8 8 7 7 7 6 6 7 7 8 7 7 7 7 8 8 8 9 8
25 24 22 22 21 19 19 19 19 17 16 16 18 18 17 16 15 13 12 10 9 8 7 7 6 6 5 5 4 4 3 3 5 5 4 3 4 4 3 6 7 5
25 23 20 18 18 18 18 18 19 18 16 16 18 18 17 16 15 13 12 10 9 8 7 6 4 4 4 4 3 3 2 2 5 5 1 1 2 1 1 3 4 2
22 20 18 15 15 15 16 17 17 17 17 17 17 17 16 14 13 12 12 10 8 7 6 5 4 4 4 5 5 3 3 2 4 4 2 1 2 2 1 0 2 2
20 18 18 17 15 14 14 15 15 16 17 17 16 16 15 13 11 11 11 10 9 7 6 5 6 6 6 7 6 4 4 3 2 3 2 1 2 3 2 4 1 2
23 21 21 19 16 14 13 13 15 16 17 16 16 14 13 12 10 10 10 10 9 8 8 7 8 10 8 7 7 5 5 4 3 4 4 3 5 6 6 5 3 2
23 22 22 20 16 15 15 15 14 14 15 15 14 12 11 11 10 10 9 8 7 8 8 9 12 12 9 7 8 7 7 7 5 6 7 7 9 8 6 6 6 4
20 21 22 21 19 18 19 18 15 14 14 13 13 12 12 12 12 11 10 10 12 13 11 10 10 10 9 9 10 10 11 11 10 9 9 9 10 10 8 8 7 5
20 20 19 21 21 21 21 21 19 17 16 16 16 15 15 15 14 14 14 15 17 17 14 10 8 8 10 12 13 12 12 13 11 10 11 11 11 12 11 9 7 4
21 19 18 18 18 19 21 21 21 20 18 18 19 19 19 19 18 17 17 17 17 16 14 10 9 9 9 11 11 11 13 14 12 11 14 13 10 10 10 8 6 5
15 16 16 15 15 17 19 20 20 20 19 19 19 19 19 19 18 17 17 16 15 14 13 10 8 10 11 11 11 11 14 15 12 10 10 7 5 6 7 7 6 4
11 10 11 12 12 12 15 18 20 21 21 20 20 19 18 17 18 19 18 17 15 13 12 11 11 13 14 13 13 13 13 12 8 4 1 2 3 6 7 6 6 6
8 7 7 8 9 8 11 15 18 19 19 19 19 18 17 16 16 17 18 18 17 14 12 12 12 13 13 12 12 10 8 5 3 4 5 5 5 6 6 5 5 5
8 7 6 8 8 8 8 9 10 13 16 17 17 17 17 16 15 16 17 18 18 17 14 13 12 12 10 7 7 7 7 7 6 5 4 4 5 5 5 5 4 2
5 5 4 5 7 6 6 6 6 8 11 12 13 14 15 15 16 16 17 16 16 16 14 11 9 8 7 7 8 9 9 8 8 8 8 7 7 7 6 7 7 6
6 5 3 3 5 5 4 4 5 6 7 8 10 11 11 11 11 12 12 11 11 11 10 10 9 9 9 9 8 7 7 8 9 10 9 8 9 10 9 10 11 11
9 7 6 6 6 7 5 4 6 7 7 7 7 8 8 8 8 9 9 9 10 11 11 11 10 10 9 8 7 7 8 9 10 10 8 7 8 9 10 9 9 9
8 7 8 8 8 7 6 5 7 7 6 6 7 7 6 7 7 9 9 9 10 11 10 10 10 9 9 8 8 9 9 9 10 9 9 8 6 8 9 8 7 9
7 7 6 7 6 5 6 7 6 5 4 5 6 6 7 7 7 9 11 10 10 10 9 9 10 10 9 9 9 9 9 9 10 10 10 8 5 7 6 5 6 8
6 6 5 5 3 3 6 7 6 5 4 5 6 7 8 9 8 9 12 12 12 11 10 9 11 11 10 10 10 9 9 10 10 9 9 8 6 6 5 4 4 4
4 3 1 2 1 2 4 5 6 7 7 7 9 9 10 11 11 12 14 14 14 14 13 11 11 11 11 10 10 9 9 11 11 9 8 8 8 7 7 6 6 6
Wind_Direction
186 185 185 182 176 168 163 167 167 159 159 162 167 173 172 178 185 179 164 149 141 138 133 131 127 128 132 129 119 111 107 105 105 104 104 100 100 105 104 95 83 87
181 180 183 179 175 170 169 174 166 158 164 168 173 175 173 178 169 153 149 138 130 125 120 122 120 117 122 117 109 107 106 105 103 103 104 101 101 104 101 91 79 82
177 174 178 181 179 176 175 173 165 165 169 170 176 170 160 162 155 146 141 129 121 117 111 109 109 107 105 104 101 99 97 97 96 96 98 98 99 102 100 92 83 80
175 170 175 187 186 181 181 175 167 168 172 173 172 163 158 158 152 146 141 132 124 118 113 110 108 105 103 100 98 97 97 96 94 92 92 93 91 91 92 91 87 83
176 172 177 190 191 187 186 181 172 169 173 178 174 166 165 162 156 154 147 139 133 126 122 119 114 111 107 102 99 98 98 95 95 94 92 93 91 88 87 86 87 89
178 180 185 192 191 188 188 185 180 177 177 178 176 173 172 167 163 162 155 150 147 141 139 134 129 128 122 115 111 106 104 101 96 90 88 92 89 87 87 79 75 79
180 185 189 195 195 188 186 186 186 186 185 182 179 178 177 172 169 169 165 164 163 160 161 155 147 149 142 136 140 131 123 113 94 81 72 82 91 92 94 86 81 70
184 184 186 193 197 191 187 189 189 188 190 190 185 182 180 176 173 173 172 174 175 177 181 178 174 179 166 167 192 188 176 143 122 126 143 88 98 80 47 97 117 118
188 187 183 187 197 199 196 195 193 190 192 194 191 187 183 177 178 180 176 179 183 182 187 184 184 197 182 183 209 202 175 160 144 159 203 221 132 112 83 142 126 112
195 193 190 190 192 196 200 203 199 194 196 197 192 192 189 180 188 196 186 184 184 179 186 184 190 212 203 194 212 205 185 193 187 205 242 255 160 137 184 250 238 118
203 199 196 194 185 178 188 205 208 202 199 198 193 194 191 182 195 214 203 195 188 183 196 207 216 229 225 210 212 210 214 237 258 256 254 236 215 195 197 231 243 194
201 197 198 199 192 183 185 197 211 208 198 196 193 193 194 189 196 211 207 202 200 199 213 221 217 221 228 231 233 238 242 244 239 238 239 236 236 231 217 220 228 226
200 200 205 204 196 189 185 184 192 195 189 189 190 189 197 199 198 201 204 211 216 217 226 227 212 208 216 231 247 255 253 248 241 241 250 259 266 268 257 234 224 226
204 199 201 202 196 190 187 183 183 187 186 187 188 189 195 198 197 199 205 216 224 224 229 241 254 247 230 233 247 255 260 263 263 264 273 277 273 268 259 242 227 225
204 188 183 193 197 194 192 188 185 189 195 198 196 195 199 202 204 206 209 219 231 235 235 247 272 269 245 240 250 261 272 276 277 281 287 288 274 257 244 231 223 213
190 174 170 181 193 195 198 200 198 197 202 207 206 206 210 212 211 212 216 224 236 244 245 252 269 266 252 245 248 258 270 277 284 291 294 291 257 214 195 200 205 182
165 159 166 177 188 191 194 202 207 207 208 210 211 214 218 218 216 217 224 232 239 243 247 256 265 262 256 254 255 259 262 267 270 260 193 106 140 155 153 166 170 154
137 137 148 165 184 192 191 196 203 207 209 210 214 218 222 221 220 223 228 235 237 239 250 262 263 260 260 261 260 252 238 227 201 152 128 105 105 117 124 136 141 139
122 126 129 146 162 171 186 199 205 206 210 215 218 223 227 228 229 232 235 239 242 247 258 262 255 251 250 239 219 201 174 147 126 123 129 119 106 101 101 106 106 89
117 124 129 148 157 160 180 200 202 203 209 214 218 224 229 233 236 240 241 242 244 247 249 244 232 219 202 179 170 165 161 164 164 157 155 154 153 151 149 156 162 149
93 96 97 129 145 150 174 194 195 201 204 202 209 218 223 226 229 231 231 229 228 225 214 201 191 181 172 172 179 181 183 189 176 157 158 172 175 173 179 188 186 175
99 105 109 112 113 112 123 155 168 180 193 192 192 201 204 201 198 201 205 203 195 187 180 180 180 179 183 192 197 190 181 169 150 143 159 176 179 186 196 204 203 197
99 106 117 121 117 117 120 123 135 152 169 175 177 183 182 178 176 175 179 189 191 183 180 188 193 194 200 205 192 178 172 158 145 157 176 176 186 203 203 201 200 199
96 94 112 121 118 134 141 123 121 141 144 147 165 171 166 168 172 168 171 189 212 214 206 205 206 204 201 194 184 177 172 158 151 172 190 189 207 223 209 203 206 199
90 90 111 127 104 124 146 138 146 167 158 156 173 177 175 181 184 177 176 189 213 228 226 210 200 197 192 189 190 187 180 168 162 180 201 201 215 241 237 226 233 229
15 26 9 224 206 187 177 171 182 188 185 193 198 197 199 200 197 194 191 193 203 215 221 218 206 199 193 192 195 192 186 185 183 183 191 195 209 240 250 245 257 271